Weather History for KLWC - November, 2012

Change the Weather History Date:

Friday, November 30, 2012

  Actual Average Record
Temperature  
Mean Temperature 48 °F 37 °F  
Max Temperature 63 °F 48 °F - ()
Min Temperature 32 °F 26 °F - ()
Degree Days  
Heating Degree Days 17 28  
Month to date heating degree days 576 645  
Since 1 July heating degree days 1032 1008  
Cooling Degree Days 0 0  
Month to date cooling degree days 6 1  
Year to date cooling degree days 1780 1371  
Moisture  
Dew Point 37 °F    
Average Humidity 62    
Maximum Humidity 82    
Minimum Humidity 42    
Precipitation  
Precipitation 0.00 in 0.06 in - ()
Month to date precipitation 1.01 2.18  
Year to date precipitation 20.05 37.08  
Sea Level Pressure  
Sea Level Pressure 30.04 in    
Wind  
Wind Speed 3 mph (South)    
Max Wind Speed 13 mph    
Max Gust Speed 17 mph    
Visibility 9 miles    
Events      
T = Trace of Precipitation, MM = Missing Value Source: NWS Daily Summary

Daily Weather History Graph

Daily Weather History Graph

Search for Another Location

Airport or City:

Trip Planner

Search our weather history database for the weather conditions in past years. The results will help you decide how hot, cold, wet, or windy it might be!

Date:

Astronomy

Nov. 30, 2012 Rise Set
Actual Time 7:20 AM CST 4:59 PM CST
Civil Twilight 6:50 AM CST 5:28 PM CST
Nautical Twilight 6:17 AM CST 6:01 PM CST
Astronomical Twilight 5:45 AM CST 6:33 PM CST
Moon 6:54 PM CST (11/30) 8:52 AM CST (11/30)
Length of Visible Light 10h 37m
Length of Day
9h 38m
Waning Gibbous, 96% of the Moon is Illuminated
Nov 30
Waning Gibbous
Dec 6
Last Quarter
Dec 13
New
Dec 19
First Quarter
Dec 28
Full

Hourly Weather History & Observations

Time (CST) Temp. Windchill Dew Point Humidity Pressure Visibility Wind Dir Wind Speed Gust Speed Precip Events Conditions
12:52 AM 46.9 °F - 34.0 °F 61% 30.02 in 10.0 mi South 8.1 mph - N/A   Clear
1:52 AM 48.9 °F - 34.0 °F 56% 30.02 in 10.0 mi SSW 10.4 mph - N/A   Clear
2:52 AM 48.0 °F - 34.0 °F 58% 30.03 in 10.0 mi SSW 9.2 mph - N/A   Clear
3:52 AM 46.0 °F 43.9 °F 34.0 °F 63% 30.04 in 10.0 mi SW 4.6 mph - N/A   Clear
4:52 AM 44.1 °F 40.8 °F 33.1 °F 65% 30.05 in 10.0 mi SW 5.8 mph - N/A   Clear
5:52 AM 42.1 °F 40.2 °F 33.1 °F 70% 30.06 in 10.0 mi SW 3.5 mph - N/A   Clear
6:52 AM 43.0 °F 41.3 °F 34.0 °F 71% 30.08 in 10.0 mi West 3.5 mph - N/A   Clear
7:52 AM 35.1 °F - 30.9 °F 85% 30.10 in 10.0 mi Calm Calm - N/A   Clear
8:52 AM 44.1 °F - 36.0 °F 73% 30.10 in 7.0 mi Calm Calm - N/A   Clear
9:52 AM 48.9 °F - 37.0 °F 64% 30.10 in 9.0 mi West 3.5 mph - N/A   Clear
10:52 AM 53.1 °F - 37.0 °F 55% 30.10 in 9.0 mi Variable 3.5 mph - N/A   Clear
11:52 AM 55.9 °F - 39.0 °F 53% 30.08 in 9.0 mi Calm Calm - N/A   Clear
12:52 PM 59.0 °F - 39.0 °F 48% 30.06 in 10.0 mi Calm Calm - N/A   Clear
1:52 PM 61.0 °F - 37.9 °F 42% 30.03 in 10.0 mi Calm Calm - N/A   Clear
2:52 PM 61.0 °F - 37.9 °F 42% 30.03 in 10.0 mi Calm Calm - N/A   Clear
3:52 PM 60.1 °F - 37.9 °F 44% 30.03 in 10.0 mi SSE 4.6 mph - N/A   Clear
4:52 PM 55.0 °F - 37.9 °F 53% 30.03 in 6.0 mi SE 4.6 mph - N/A   Haze
5:52 PM 48.0 °F - 37.0 °F 66% 30.03 in 7.0 mi Calm Calm - N/A   Clear
6:52 PM 44.1 °F - 36.0 °F 73% 30.04 in 5.0 mi Calm Calm - N/A   Haze
7:52 PM 46.0 °F 42.5 °F 37.0 °F 71% 30.03 in 8.0 mi East 6.9 mph - N/A   Clear
8:52 PM 46.0 °F - 37.9 °F 73% 30.02 in 8.0 mi Calm Calm - N/A   Clear
9:52 PM 43.0 °F - 37.0 °F 80% 30.02 in 7.0 mi Calm Calm - N/A   Mostly Cloudy
10:52 PM 50.0 °F - 42.1 °F 74% 30.01 in 7.0 mi East 5.8 mph - N/A   Overcast
11:30 PM 51.8 °F - 46.4 °F 82% 30.00 in 7.0 mi SSE 4.6 mph - N/A   Overcast
11:52 PM 53.1 °F - 46.0 °F 77% 30.00 in 7.0 mi SE 4.6 mph - N/A   Overcast